Time,TemperatureF,DewpointF,PressureIn,WindDirection,WindDirectionDegrees,WindSpeedMPH,WindSpeedGustMPH,Humidity,HourlyPrecipIn,Conditions,Clouds,dailyrainin,SoftwareType,DateUTC
2013-06-07 00:00:00,43.0,24.0,-100.00,North,-999,-999.0,-999.0,47,-99.99,,,-99.99,,2013-06-07 06:00:00,
2013-06-07 00:52:00,43.0,24.0,-100.00,North,-999,-999.0,-999.0,47,-99.99,,,-99.99,,2013-06-07 06:52:00,
2013-06-07 01:00:00,41.0,23.0,-100.00,North,-999,-999.0,-999.0,47,-99.99,,,-99.99,,2013-06-07 07:00:00,
2013-06-07 01:52:00,41.0,23.0,-100.00,North,-999,-999.0,-999.0,47,-99.99,,,-99.99,,2013-06-07 07:52:00,
2013-06-07 02:00:00,40.0,22.0,-100.00,North,-999,-999.0,-999.0,47,-99.99,,,0.00,,2013-06-07 08:00:00,
2013-06-07 02:52:00,40.0,22.0,-100.00,North,-999,-999.0,-999.0,47,-99.99,,,0.00,,2013-06-07 08:52:00,
2013-06-07 03:00:00,41.0,22.0,-100.00,North,-999,-999.0,-999.0,47,-99.99,,,0.00,,2013-06-07 09:00:00,
2013-06-07 03:53:00,41.0,22.0,-100.00,North,-999,-999.0,-999.0,47,-99.99,,,0.00,,2013-06-07 09:53:00,
2013-06-07 04:00:00,40.0,21.0,-100.00,North,-999,-999.0,-999.0,47,-99.99,,,0.00,,2013-06-07 10:00:00,
2013-06-07 04:53:00,40.0,21.0,-100.00,North,-999,-999.0,-999.0,47,-99.99,,,0.00,,2013-06-07 10:53:00,
2013-06-07 05:00:00,40.0,21.0,-100.00,North,-999,-999.0,-999.0,47,-99.99,,,0.00,,2013-06-07 11:00:00,
2013-06-07 05:52:00,40.0,21.0,-100.00,North,-999,-999.0,-999.0,47,-99.99,,,0.00,,2013-06-07 11:52:00,
2013-06-07 06:00:00,39.0,21.0,-100.00,North,-999,-999.0,-999.0,47,-99.99,,,0.00,,2013-06-07 12:00:00,
2013-06-07 06:52:00,39.0,21.0,-100.00,North,-999,-999.0,-999.0,47,-99.99,,,0.00,,2013-06-07 12:52:00,
2013-06-07 07:00:00,42.0,23.0,-100.00,North,-999,-999.0,-999.0,47,-99.99,,,0.00,,2013-06-07 13:00:00,
2013-06-07 07:52:00,42.0,23.0,-100.00,North,-999,-999.0,-999.0,47,-99.99,,,0.00,,2013-06-07 13:52:00,
2013-06-07 08:00:00,49.0,30.0,-100.00,North,-999,-999.0,-999.0,47,-99.99,,,0.00,,2013-06-07 14:00:00,
2013-06-07 08:52:00,49.0,30.0,-100.00,North,-999,-999.0,-999.0,47,-99.99,,,0.00,,2013-06-07 14:52:00,
2013-06-07 09:00:00,55.0,35.0,-100.00,North,-999,-999.0,-999.0,47,-99.99,,,0.00,,2013-06-07 15:00:00,
2013-06-07 09:53:00,55.0,35.0,-100.00,North,-999,-999.0,-999.0,47,-99.99,,,0.00,,2013-06-07 15:53:00,
2013-06-07 10:00:00,59.0,39.0,-100.00,North,-999,-999.0,-999.0,47,-99.99,,,-99.99,,2013-06-07 16:00:00,
2013-06-07 10:53:00,59.0,39.0,-100.00,North,-999,-999.0,-999.0,47,-99.99,,,-99.99,,2013-06-07 16:53:00,
2013-06-07 11:00:00,56.0,36.0,-100.00,North,-999,-999.0,-999.0,46,-99.99,,,0.00,,2013-06-07 17:00:00,
2013-06-07 11:52:00,56.0,36.0,-100.00,North,-999,-999.0,-999.0,46,-99.99,,,0.00,,2013-06-07 17:52:00,
2013-06-07 12:00:00,60.0,39.0,-100.00,North,-999,-999.0,-999.0,46,-99.99,,,0.00,,2013-06-07 18:00:00,
2013-06-07 12:59:00,60.0,39.0,-100.00,North,-999,-999.0,-999.0,46,-99.99,,,0.00,,2013-06-07 18:59:00,
2013-06-07 13:00:00,63.0,-99.9,-100.00,North,-999,-999.0,-999.0,-999,-99.99,,,0.00,,2013-06-07 19:00:00,
2013-06-07 14:00:00,64.0,43.0,-100.00,North,-999,-999.0,-999.0,46,-99.99,,,-99.99,,2013-06-07 20:00:00,
2013-06-07 14:58:00,64.0,43.0,-100.00,North,-999,-999.0,-999.0,46,-99.99,,,-99.99,,2013-06-07 20:58:00,
2013-06-07 15:00:00,66.0,44.0,-100.00,North,-999,-999.0,-999.0,46,-99.99,,,-99.99,,2013-06-07 21:00:00,
2013-06-07 16:49:00,61.0,40.0,-100.00,North,-999,-999.0,-999.0,46,-99.99,,,-99.99,,2013-06-07 22:49:00,
2013-06-07 16:59:00,61.0,40.0,-100.00,North,-999,-999.0,-999.0,46,-99.99,,,-99.99,,2013-06-07 22:59:00,
2013-06-07 17:00:00,60.0,40.0,-100.00,North,-999,-999.0,-999.0,46,-99.99,,,-99.99,,2013-06-07 23:00:00,
2013-06-07 17:55:00,60.0,40.0,-100.00,North,-999,-999.0,-999.0,46,-99.99,,,-99.99,,2013-06-07 23:55:00,
2013-06-07 18:00:00,60.0,39.0,-100.00,North,-999,-999.0,-999.0,46,-99.99,,,-99.99,,2013-06-08 00:00:00,
2013-06-07 18:48:00,60.0,39.0,-100.00,North,-999,-999.0,-999.0,46,-99.99,,,-99.99,,2013-06-08 00:48:00,
2013-06-07 19:00:00,57.0,36.0,-100.00,North,-999,-999.0,-999.0,46,-99.99,,,-99.99,,2013-06-08 01:00:00,
2013-06-07 19:49:00,57.0,36.0,-100.00,North,-999,-999.0,-999.0,46,-99.99,,,-99.99,,2013-06-08 01:49:00,
2013-06-07 20:00:00,54.0,33.0,-100.00,North,-999,-999.0,-999.0,46,-99.99,,,0.00,,2013-06-08 02:00:00,
2013-06-07 20:59:00,54.0,33.0,-100.00,North,-999,-999.0,-999.0,46,-99.99,,,0.00,,2013-06-08 02:59:00,
2013-06-07 21:00:00,52.0,32.0,-100.00,North,-999,-999.0,-999.0,46,-99.99,,,-99.99,,2013-06-08 03:00:00,
2013-06-07 22:00:00,51.0,31.0,-100.00,North,-999,-999.0,-999.0,46,-99.99,,,-99.99,,2013-06-08 04:00:00,
2013-06-07 22:53:00,51.0,31.0,-100.00,North,-999,-999.0,-999.0,46,-99.99,,,-99.99,,2013-06-08 04:53:00,
2013-06-07 23:00:00,51.0,31.0,-100.00,North,-999,-999.0,-999.0,47,-99.99,,,-99.99,,2013-06-08 05:00:00,
2013-06-07 23:53:00,51.0,31.0,-100.00,North,-999,-999.0,-999.0,47,-99.99,,,-99.99,,2013-06-08 05:53:00,